Weather History for KMMU - April, 2013

Change the Weather History Date:

Wednesday, April 10, 2013

  Actual Average Record
Temperature  
Mean Temperature 66 °F -  
Max Temperature 78 °F 57 °F 83 °F (1991)
Min Temperature 53 °F 34 °F 18 °F (1950)
Growing Degree Days 16 (Base 50)    
Moisture  
Dew Point 49 °F    
Average Humidity 65    
Maximum Humidity 94    
Minimum Humidity 39    
Precipitation  
Precipitation 0.00 in - - ()
Sea Level Pressure  
Sea Level Pressure 29.88 in    
Wind  
Wind Speed 3 mph (East)    
Max Wind Speed 15 mph    
Max Gust Speed 24 mph    
Visibility 10 miles    
Events Rain , Thunderstorm    
Averages and records for this station are not official NWS values.
T = Trace of Precipitation, MM = Missing Value Source: NWS Daily Summary

Daily Weather History Graph

Daily Weather History Graph

Search for Another Location

Airport or City:

Trip Planner

Search our weather history database for the weather conditions in past years. The results will help you decide how hot, cold, wet, or windy it might be!

Date:

Astronomy

Apr. 10, 2013 Rise Set
Actual Time 6:26 AM EDT 7:32 PM EDT
Civil Twilight 5:58 AM EDT 8:00 PM EDT
Nautical Twilight 5:24 AM EDT 8:33 PM EDT
Astronomical Twilight 4:49 AM EDT 9:09 PM EDT
Moon 6:20 AM EDT (4/10) 8:05 PM EDT (4/10)
Length of Visible Light 14h 02m
Length of Day
13h 05m
New Moon, 0% of the Moon is Illuminated
Apr 10
New Moon
Apr 18
First Quarter
Apr 25
Full
May 2
Last Quarter
May 9
New

Hourly Weather History & Observations

Time (EDT) Temp. Dew Point Humidity Pressure Visibility Wind Dir Wind Speed Gust Speed Precip Events Conditions
12:15 AM 57.2 °F 44.6 °F 63% 29.89 in 10.0 mi Calm Calm - N/A   Mostly Cloudy
12:35 AM 57.2 °F 46.4 °F 67% 29.88 in 10.0 mi Calm Calm - N/A   Scattered Clouds
12:55 AM 59.0 °F 44.6 °F 59% 29.88 in 10.0 mi Calm Calm - N/A   Clear
1:15 AM 57.2 °F 44.6 °F 63% 29.87 in 10.0 mi Calm Calm - N/A   Clear
1:35 AM 55.4 °F 46.4 °F 72% 29.87 in 10.0 mi Calm Calm - N/A   Clear
1:55 AM 55.4 °F 42.8 °F 63% 29.86 in 10.0 mi Calm Calm - N/A   Scattered Clouds
2:15 AM 55.4 °F 44.6 °F 67% 29.84 in 10.0 mi Calm Calm - N/A   Scattered Clouds
2:35 AM 55.4 °F 42.8 °F 63% 29.82 in 10.0 mi Calm Calm - N/A   Clear
2:55 AM 59.0 °F 46.4 °F 63% 29.83 in 10.0 mi SW 3.5 mph - N/A   Clear
3:15 AM 62.6 °F 50.0 °F 63% 29.83 in 10.0 mi SSW 3.5 mph - N/A   Scattered Clouds
3:35 AM 64.4 °F 50.0 °F 59% 29.86 in 10.0 mi North 8.1 mph - N/A   Mostly Cloudy
3:55 AM 68.0 °F 50.0 °F 52% 29.87 in 10.0 mi NNE 6.9 mph - N/A   Scattered Clouds
4:15 AM 62.6 °F 46.4 °F 55% 29.87 in 10.0 mi East 4.6 mph - N/A   Clear
4:35 AM 60.8 °F 42.8 °F 52% 29.87 in 10.0 mi NE 4.6 mph - N/A   Clear
4:55 AM 59.0 °F 44.6 °F 59% 29.89 in 10.0 mi ENE 6.9 mph - N/A   Clear
5:15 AM 57.2 °F 44.6 °F 63% 29.90 in 10.0 mi NNE 6.9 mph - N/A   Clear
5:35 AM 57.2 °F 44.6 °F 63% 29.90 in 10.0 mi Calm Calm - N/A   Clear
5:55 AM 57.2 °F 44.6 °F 63% 29.91 in 10.0 mi NNW 4.6 mph - N/A   Clear
6:15 AM 55.4 °F 44.6 °F 67% 29.91 in 10.0 mi Calm Calm - N/A   Clear
6:35 AM 53.6 °F 44.6 °F 72% 29.91 in 10.0 mi Calm Calm - N/A   Clear
7:45 AM 57.2 °F 46.4 °F 67% 29.95 in 20.0 mi Calm Calm - N/A   Mostly Cloudy
8:45 AM 59.0 °F 46.4 °F 63% 29.94 in 20.0 mi Calm Calm - N/A   Mostly Cloudy
9:45 AM 66.2 °F 48.2 °F 52% 29.93 in 20.0 mi SE 3.5 mph - N/A   Mostly Cloudy
10:45 AM 69.8 °F 48.2 °F 46% 29.92 in 20.0 mi East 3.5 mph - N/A   Mostly Cloudy
11:45 AM 73.4 °F 50.0 °F 44% 29.92 in 10.0 mi ENE 5.8 mph - N/A   Mostly Cloudy
12:45 PM 75.2 °F 50.0 °F 41% 29.91 in 10.0 mi East 5.8 mph - N/A   Mostly Cloudy
1:45 PM 78.8 °F 51.8 °F 39% 29.89 in 10.0 mi SSE 5.8 mph - N/A   Mostly Cloudy
2:45 PM 75.2 °F 50.0 °F 41% 29.88 in 10.0 mi East 11.5 mph - N/A   Overcast
3:45 PM 75.2 °F 51.8 °F 44% 29.86 in 10.0 mi East 6.9 mph - N/A   Mostly Cloudy
4:45 PM 68.0 °F 50.0 °F 52% 29.87 in 7.0 mi South 11.5 mph - N/A   Haze
5:45 PM 62.6 °F 51.8 °F 68% 29.85 in 10.0 mi South 9.2 mph - N/A   Haze
6:51 PM 62.6 °F 51.8 °F 68% 29.95 in 3.0 mi North 12.7 mph 24.2 mph N/A Rain , Thunderstorm Thunderstorms and Rain
7:02 PM 59.0 °F 53.6 °F 82% 29.91 in 1.5 mi ESE 4.6 mph - N/A Rain , Thunderstorm Thunderstorms and Rain
7:45 PM 57.2 °F 53.6 °F 88% 29.84 in 5.0 mi Calm Calm - N/A Rain , Thunderstorm Light Rain
8:45 PM 57.2 °F 55.4 °F 94% 29.86 in 7.0 mi Calm Calm - N/A   Overcast
9:45 PM 57.2 °F 55.4 °F 94% 29.92 in 10.0 mi NNW 15.0 mph 23.0 mph N/A Thunderstorm Mostly Cloudy
10:55 PM 59.0 °F 57.2 °F 94% 29.89 in 3.0 mi Calm Calm - N/A Thunderstorm Unknown
11:15 PM 59.0 °F 55.4 °F 88% 29.87 in 2.5 mi Calm Calm - N/A Rain Light Rain
11:35 PM 59.0 °F 57.2 °F 94% 29.86 in 3.0 mi Calm Calm - N/A Rain Light Rain
11:55 PM 59.0 °F 55.4 °F 88% 29.82 in 3.0 mi East 3.5 mph - N/A Rain Light Rain